• In Hungary
  • List of Countries
  • For 7 days
  • Water Temperature
  • Satellite Maps
  • Weather Map
  • News
  • Weather Widgets
  • user-avatar
    Login

    Hourly Weather Portugalete

    Today, 24 September, Monday

    Time Temperature Precipitation Wind Pressure Humidity
    00:00 +22°C° 0.3 mm 4 mps 764 mmHg 95%
    01:00 +21°C° 0.2 mm 5 mps 764 mmHg 96%
    02:00 +21°C° 0.2 mm 5 mps 765 mmHg 96%
    03:00 +21°C° 0.2 mm 6 mps 765 mmHg 96%
    04:00 +20°C° 0.1 mm 6 mps 765 mmHg 96%
    05:00 +20°C° 0.1 mm 6 mps 765 mmHg 96%
    06:00 +19°C° 0.1 mm 5 mps 765 mmHg 96%
    07:00 +19°C° 0 mm 5 mps 766 mmHg 95%
    08:00 +17°C° 0 mm 5 mps 766 mmHg 95%
    09:00 +17°C° 0 mm 5 mps 766 mmHg 94%
    10:00 +18°C° 0 mm 4 mps 766 mmHg 89%
    11:00 +19°C° 0 mm 4 mps 766 mmHg 84%
    12:00 +19°C° 0 mm 4 mps 766 mmHg 79%
    13:00 +19°C° 0 mm 4 mps 766 mmHg 72%
    14:00 +20°C° 0 mm 4 mps 766 mmHg 66%
    15:00 +20°C° 0 mm 4 mps 765 mmHg 60%
    16:00 +19°C° 0 mm 4 mps 765 mmHg 66%
    17:00 +17°C° 0 mm 4 mps 765 mmHg 72%
    18:00 +14°C° 0 mm 3 mps 765 mmHg 78%
    19:00 +13°C° 0 mm 3 mps 766 mmHg 83%
    20:00 +13°C° 0 mm 2 mps 766 mmHg 88%
    21:00 +12°C° 0 mm 2 mps 766 mmHg 93%
    22:00 +12°C° 0 mm 2 mps 766 mmHg 93%
    23:00 +10°C° 0 mm 2 mps 766 mmHg 93%

    Tomorrow, 25 September, Tuesday

    Time Temperature Precipitation Wind Pressure Humidity
    00:00 +10°C° 0 mm 2 mps 766 mmHg 92%
    01:00 +10°C° 0 mm 3 mps 766 mmHg 92%
    02:00 +10°C° 0 mm 3 mps 765 mmHg 92%
    03:00 +10°C° 0 mm 3 mps 765 mmHg 91%
    04:00 +10°C° 0 mm 3 mps 765 mmHg 92%
    05:00 +10°C° 0 mm 3 mps 765 mmHg 92%
    06:00 +10°C° 0 mm 3 mps 765 mmHg 92%
    07:00 +12°C° 0 mm 3 mps 765 mmHg 80%
    08:00 +16°C° 0 mm 3 mps 765 mmHg 67%
    09:00 +18°C° 0 mm 3 mps 765 mmHg 55%
    10:00 +20°C° 0 mm 3 mps 765 mmHg 50%
    11:00 +21°C° 0 mm 4 mps 764 mmHg 45%
    12:00 +23°C° 0 mm 4 mps 764 mmHg 40%
    13:00 +23°C° 0 mm 4 mps 764 mmHg 41%
    14:00 +23°C° 0 mm 4 mps 763 mmHg 42%
    15:00 +23°C° 0 mm 4 mps 763 mmHg 44%
    16:00 +21°C° 0 mm 3 mps 763 mmHg 52%
    17:00 +19°C° 0 mm 3 mps 763 mmHg 61%
    18:00 +16°C° 0 mm 2 mps 763 mmHg 70%
    19:00 +15°C° 0 mm 2 mps 763 mmHg 73%
    20:00 +14°C° 0 mm 2 mps 764 mmHg 77%
    21:00 +13°C° 0 mm 2 mps 764 mmHg 81%
    22:00 +14°C° 0 mm 2 mps 764 mmHg 80%
    23:00 +14°C° 0 mm 2 mps 764 mmHg 79%

    Day after tomorrow, 26 September, Wednesday

    Time Temperature Precipitation Wind Pressure Humidity
    00:00 +14°C° 0 mm 2 mps 763 mmHg 77%
    01:00 +14°C° 0 mm 2 mps 763 mmHg 79%
    02:00 +14°C° 0 mm 3 mps 763 mmHg 81%
    03:00 +14°C° 0 mm 3 mps 763 mmHg 83%
    04:00 +14°C° 0 mm 4 mps 763 mmHg 84%
    05:00 +15°C° 0 mm 4 mps 763 mmHg 85%
    06:00 +15°C° 0 mm 4 mps 763 mmHg 86%
    07:00 +17°C° 0 mm 5 mps 763 mmHg 80%
    08:00 +21°C° 0 mm 5 mps 763 mmHg 74%
    09:00 +23°C° 0 mm 5 mps 763 mmHg 68%
    10:00 +26°C° 0 mm 5 mps 763 mmHg 63%
    11:00 +28°C° 0 mm 5 mps 763 mmHg 57%
    12:00 +29°C° 0 mm 6 mps 763 mmHg 52%
    13:00 +30°C° 0 mm 6 mps 762 mmHg 50%
    14:00 +30°C° 0 mm 6 mps 762 mmHg 48%
    15:00 +32°C° 0 mm 6 mps 761 mmHg 46%
    16:00 +29°C° 0 mm 6 mps 762 mmHg 51%
    17:00 +27°C° 0 mm 5 mps 762 mmHg 56%
    18:00 +26°C° 0 mm 5 mps 762 mmHg 61%
    19:00 +25°C° 0 mm 5 mps 762 mmHg 63%
    20:00 +23°C° 0 mm 5 mps 763 mmHg 64%
    21:00 +22°C° 0 mm 4 mps 763 mmHg 66%
    22:00 +21°C° 0 mm 4 mps 763 mmHg 67%
    23:00 +21°C° 0 mm 4 mps 763 mmHg 67%

    27 September, Thursday

    Time Temperature Precipitation Wind Pressure Humidity
    00:00 +20°C° 0 mm 4 mps 763 mmHg 68%
    01:00 +20°C° 0 mm 4 mps 763 mmHg 69%
    02:00 +20°C° 0 mm 4 mps 763 mmHg 70%
    03:00 +20°C° 0 mm 4 mps 763 mmHg 72%
    04:00 +19°C° 0 mm 4 mps 763 mmHg 75%
    05:00 +19°C° 0 mm 4 mps 763 mmHg 79%
    06:00 +19°C° 0 mm 4 mps 763 mmHg 82%
    07:00 +20°C° 0 mm 4 mps 763 mmHg 77%
    08:00 +22°C° 0 mm 4 mps 763 mmHg 71%
    09:00 +25°C° 0 mm 4 mps 763 mmHg 65%
    10:00 +27°C° 0 mm 3 mps 763 mmHg 58%
    11:00 +29°C° 0 mm 3 mps 763 mmHg 52%
    12:00 +31°C° 0 mm 3 mps 763 mmHg 45%
    13:00 +32°C° 0 mm 2 mps 762 mmHg 43%
    14:00 +32°C° 0 mm 2 mps 762 mmHg 41%
    15:00 +34°C° 0 mm 2 mps 761 mmHg 39%
    16:00 +31°C° 0 mm 2 mps 761 mmHg 47%
    17:00 +28°C° 0 mm 2 mps 761 mmHg 55%
    18:00 +26°C° 0 mm 1 mps 761 mmHg 63%
    19:00 +25°C° 0 mm 1 mps 761 mmHg 67%
    20:00 +24°C° 0 mm 1 mps 762 mmHg 71%
    21:00 +23°C° 0 mm 1 mps 762 mmHg 75%
    22:00 +22°C° 0 mm 1 mps 762 mmHg 75%
    23:00 +21°C° 0 mm 2 mps 762 mmHg 75%

    28 September, Friday

    Time Temperature Precipitation Wind Pressure Humidity
    00:00 +21°C° 0 mm 2 mps 761 mmHg 75%
    01:00 +21°C° 0 mm 1 mps 761 mmHg 76%
    02:00 +21°C° 0 mm 1 mps 761 mmHg 77%
    03:00 +21°C° 0 mm 1 mps 761 mmHg 77%
    04:00 +21°C° 0 mm 1 mps 760 mmHg 78%
    05:00 +20°C° 0 mm 1 mps 760 mmHg 78%
    06:00 +20°C° 0 mm 1 mps 760 mmHg 79%
    07:00 +23°C° 0 mm 1 mps 760 mmHg 70%
    08:00 +25°C° 0 mm 1 mps 760 mmHg 62%
    09:00 +28°C° 0 mm 1 mps 760 mmHg 53%
    10:00 +29°C° 0 mm 1 mps 760 mmHg 49%
    11:00 +30°C° 0 mm 2 mps 760 mmHg 44%
    12:00 +31°C° 0 mm 2 mps 760 mmHg 40%
    13:00 +31°C° 0 mm 3 mps 759 mmHg 41%
    14:00 +31°C° 0 mm 3 mps 759 mmHg 42%
    15:00 +30°C° 0 mm 3 mps 758 mmHg 44%
    16:00 +28°C° 0 mm 2 mps 758 mmHg 54%
    17:00 +25°C° 0 mm 2 mps 758 mmHg 64%
    18:00 +23°C° 0 mm 1 mps 758 mmHg 74%
    19:00 +22°C° 0 mm 1 mps 758 mmHg 79%
    20:00 +21°C° 0 mm 1 mps 759 mmHg 84%
    21:00 +19°C° 0 mm 1 mps 759 mmHg 88%
    22:00 +19°C° 0 mm 1 mps 759 mmHg 88%
    23:00 +19°C° 0 mm 1 mps 758 mmHg 87%

    29 September, Saturday

    Time Temperature Precipitation Wind Pressure Humidity
    00:00 +19°C° 0 mm 1 mps 758 mmHg 86%
    01:00 +19°C° 0 mm 1 mps 758 mmHg 85%
    02:00 +18°C° 0 mm 1 mps 758 mmHg 83%
    03:00 +18°C° 0 mm 1 mps 757 mmHg 81%
    04:00 +18°C° 0 mm 1 mps 757 mmHg 80%
    05:00 +18°C° 0 mm 1 mps 757 mmHg 78%
    06:00 +18°C° 0 mm 1 mps 757 mmHg 76%
    07:00 +21°C° 0 mm 1 mps 757 mmHg 67%
    08:00 +23°C° 0 mm 1 mps 757 mmHg 58%
    09:00 +26°C° 0 mm 1 mps 757 mmHg 48%
    10:00 +28°C° 0 mm 1 mps 757 mmHg 44%
    11:00 +30°C° 0 mm 2 mps 757 mmHg 40%
    12:00 +34°C° 0 mm 2 mps 756 mmHg 36%
    13:00 +32°C° 0.1 mm 2 mps 756 mmHg 37%
    14:00 +33°C° 0.1 mm 3 mps 755 mmHg 38%
    15:00 +31°C° 0.1 mm 3 mps 755 mmHg 40%
    16:00 +29°C° 0.6 mm 2 mps 755 mmHg 51%
    17:00 +26°C° 0.6 mm 2 mps 755 mmHg 63%
    18:00 +24°C° 0.6 mm 1 mps 755 mmHg 75%
    19:00 +23°C° 0.4 mm 2 mps 756 mmHg 81%
    20:00 +21°C° 0.4 mm 2 mps 756 mmHg 88%
    21:00 +19°C° 0.4 mm 2 mps 756 mmHg 94%
    22:00 +19°C° 0.3 mm 2 mps 756 mmHg 95%
    23:00 +19°C° 0.3 mm 2 mps 756 mmHg 95%
    Show more

    3.3.7123123